{"data":{"norad_id":47722,"epoch":"2026-05-24T20:24:31.728672Z","epoch_age_seconds":91052,"freshness":"FRESH","line1":"1 47722U 21017A   26144.85036723  .00000993  00000+0  43767-4 0  9995","line2":"2 47722  53.1584 196.7857 0001249  84.2386 275.8758 15.31696807289748","mean_motion":15.31696807,"eccentricity":0.0001249,"inclination_deg":53.1584,"raan_deg":196.7857,"arg_perigee_deg":84.2386,"mean_anomaly_deg":275.8758,"bstar":4.3767e-5,"rev_number":28974,"period_min":94.013383942505,"perigee_km":469.89408748351,"apogee_km":471.60493933456,"semimajor_km":6848.886513409,"source":"CELESTRAK","updated_at":"2026-05-25T13:38:16.564002Z"}}